Joplin, MO

7:19 AM CDT on October 15, 2019 (GMT -0500)
Joplin Regional

Weather History for KJLN - August, 2019

Change the Weather History Date:

Saturday, August 3, 2019

  Actual Average Record
Temperature  
Mean Temperature 78 °F 81 °F  
Max Temperature 84 °F 92 °F 105 °F (2011)
Min Temperature 71 °F 70 °F 53 °F (1950)
Degree Days  
Heating Degree Days 0 0  
Month to date heating degree days 0 0  
Since 1 June heating degree days 1 5  
Since 1 July heating degree days 0 0  
Cooling Degree Days 13 16  
Month to date cooling degree days 35 48  
Year to date cooling degree days 886 1019  
Since 1 June cooling degree days 733 839  
Growing Degree Days 27 (Base 50)    
Moisture  
Dew Point 72 °F    
Average Humidity 85    
Maximum Humidity 100    
Minimum Humidity 69    
Precipitation  
Precipitation 0.09 in 0.10 in 1.60 in (1990)
Month to date precipitation 0.84 0.29  
Year to date precipitation 43.75 27.91  
Sea Level Pressure  
Sea Level Pressure 30.00 in    
Wind  
Wind Speed 3 mph (ESE)    
Max Wind Speed 18 mph    
Max Gust Speed 25 mph    
Visibility 7 miles    
Events Rain , Thunderstorm    
T = Trace of Precipitation, MM = Missing Value Source: NWS Daily Summary

Daily Weather History Graph

Daily Weather History Graph

Search for Another Location

Airport or City:

Astronomy

Aug. 03, 2019 Rise Set
Actual Time 6:24 AM CDT 8:23 PM CDT
Civil Twilight 5:55 AM CDT 8:52 PM CDT
Nautical Twilight 5:20 AM CDT 9:26 PM CDT
Astronomical Twilight 4:43 AM CDT 10:04 PM CDT
Moon 9:15 AM CDT (8/3) 10:33 PM CDT (8/3)
Length of Visible Light 14h 56m
Length of Day
13h 59m
Waxing Crescent, 10% of the Moon is Illuminated
Aug 3
Waxing Crescent
Aug 7
First Quarter
Aug 15
Full
Aug 23
Last Quarter
Aug 30
New

Hourly Weather History & Observations

Time (CDT) Temp. Heat Index Dew Point Humidity Pressure Visibility Wind Dir Wind Speed Gust Speed Precip Events Conditions
12:53 AM 73.9 °F - 72.0 °F 93% 30.01 in 10.0 mi East 6.9 mph - N/A   Mostly Cloudy
1:53 AM 73.9 °F - 71.1 °F 91% 30.01 in 10.0 mi SE 5.8 mph - 0.00 in Rain Light Rain
2:53 AM 73.0 °F - 71.1 °F 93% 29.99 in 10.0 mi SE 6.9 mph - 0.01 in   Overcast
3:53 AM 73.0 °F - 71.1 °F 93% 29.98 in 10.0 mi South 5.8 mph - 0.01 in   Overcast
4:53 AM 73.0 °F - 71.1 °F 93% 29.99 in 7.0 mi Calm Calm - N/A   Overcast
5:53 AM 72.0 °F - 71.1 °F 97% 29.98 in 7.0 mi East 6.9 mph - 0.00 in   Overcast
6:23 AM 72.0 °F - 71.1 °F 97% 30.02 in 6.0 mi Variable 3.5 mph - N/A   Overcast
6:30 AM 72.0 °F - 71.1 °F 97% 30.02 in 6.0 mi Calm Calm - N/A   Overcast
6:53 AM 72.0 °F - 71.1 °F 97% 29.99 in 5.0 mi East 4.6 mph - N/A   Overcast
7:53 AM 72.0 °F - 71.1 °F 97% 30.00 in 5.0 mi ESE 4.6 mph - N/A   Scattered Clouds
8:53 AM 75.0 °F - 72.0 °F 90% 30.01 in 10.0 mi Variable 3.5 mph - N/A   Mostly Cloudy
9:53 AM 75.9 °F - 71.1 °F 85% 30.01 in 10.0 mi Calm Calm - N/A   Overcast
10:53 AM 77.0 °F - 72.0 °F 84% 30.01 in 10.0 mi Calm Calm - N/A   Mostly Cloudy
11:53 AM 80.1 °F 84.2 °F 73.0 °F 79% 29.99 in 10.0 mi Calm Calm - N/A   Mostly Cloudy
12:53 PM 82.0 °F 86.7 °F 72.0 °F 71% 29.98 in 10.0 mi Calm Calm - N/A   Scattered Clouds
1:53 PM 82.9 °F 88.8 °F 73.0 °F 72% 29.97 in 10.0 mi Variable 4.6 mph - N/A   Mostly Cloudy
2:53 PM 73.0 °F - 71.1 °F 93% 29.98 in 5.0 mi SSE 12.7 mph 18.4 mph 0.05 in Rain Light Rain
3:16 PM 73.9 °F - 71.1 °F 91% 30.01 in 10.0 mi SSE 4.6 mph - 0.00 in Thunderstorm Thunderstorm
3:31 PM 73.9 °F - 72.0 °F 93% 30.01 in 10.0 mi SSE 5.8 mph - 0.00 in Rain Light Rain
3:53 PM 73.9 °F - 72.0 °F 93% 29.98 in 10.0 mi SSE 8.1 mph - 0.00 in   Mostly Cloudy
4:53 PM 75.0 °F - 72.0 °F 90% 29.98 in 10.0 mi Variable 3.5 mph - N/A   Mostly Cloudy
5:53 PM 75.0 °F - 72.0 °F 90% 29.98 in 7.0 mi ENE 3.5 mph - 0.01 in Rain Light Rain
6:53 PM 77.0 °F - 73.0 °F 88% 29.96 in 10.0 mi Calm Calm - 0.01 in   Scattered Clouds
7:53 PM 75.0 °F - 73.0 °F 94% 29.97 in 8.0 mi North 3.5 mph - N/A   Partly Cloudy
8:53 PM 73.9 °F - 73.0 °F 97% 29.97 in 6.0 mi Calm Calm - N/A   Clear
9:11 PM 73.0 °F - 72.0 °F 96% 30.00 in 5.0 mi North 3.5 mph - N/A   Scattered Clouds
9:53 PM 73.0 °F - 73.0 °F 100% 29.99 in 6.0 mi ESE 3.5 mph - N/A   Partly Cloudy
10:53 PM 73.0 °F - 73.0 °F 100% 29.99 in 5.0 mi ENE 4.6 mph - N/A   Overcast
11:22 PM 73.0 °F - 73.0 °F 100% 30.03 in 4.0 mi ENE 3.5 mph - N/A   Mostly Cloudy
11:27 PM 73.0 °F - 73.0 °F 100% 30.03 in 2.5 mi ENE 3.5 mph - N/A   Mostly Cloudy
11:35 PM 73.0 °F - 73.0 °F 100% 30.03 in 1.2 mi East 3.5 mph - N/A   Mostly Cloudy
11:53 PM 73.0 °F - 73.0 °F 100% 30.00 in 2.5 mi Calm Calm - N/A   Overcast